Погода в Чернелевке

Украина / Хмельницкая область     49°40′35″N   26°49′32″E
темп.,
°C
ветер,
м/с
пор.,
м/с
влажн.,
%
обл.,
%
осадки,
мм/ч
давл.,
гПа
погр.,
м
5 августа, чт
чт500:00+15вюв118861 0.1 101511
03:00+16вюв2286100 0.1 101422
06:00+16ю3390100 0.0 101330
09:00+20ю2377100 0.0 1012221
12:00+26ююв345124 0.0 10111172
15:00+28ююв454212 0.0 10092105
18:00+27юв565399 0.0 10061185
21:00+21ю4981100 1.2 1005180
6 августа, пт
пт600:00+19юв51290100 15.1 1004350
03:00+16ю4129328 15.2 1003250
06:00+16ююз499445 0.0 1002176
09:00+20зюз610766 0.0 1002733
12:00+23з575928 0.0 10031302
15:00+22з457085 1.4 1004838
18:00+18зсз4886100 1.9 1005354
21:00+15зсз499287 1.9 1007316
7 августа, сб
сб700:00+13з399624 0.0 1008264
03:00+12зсз410966 0.0 1009358
06:00+11з34972 0.0 101181
09:00+16з46780 0.0 1011416
12:00+21зсз45515 0.0 10121344
15:00+24зсз46459 0.0 10121836
18:00+22з366195 0.0 1013326
21:00+18юз12725 0.0 101411
8 августа, вс
вс800:00+17ююз22765 0.0 101511
03:00+15ю34805 0.0 101542
06:00+15ю348350 0.0 101551
09:00+21ю47653 0.0 1015308
12:00+26ю67505 0.0 10151127
15:00+27ю66435 0.0 10151347
18:00+27ю56505 0.0 1015958
21:00+20ююв49725 0.0 1016144
9 августа, пн
пн900:00+19ююв41272100 0.0 1016193
03:00+18ююв5137095 0.0 1015226
06:00+18ю412693 0.0 1016276
09:00+22юв346499 0.1 1016206
12:00+25ююв3456100 0.1 1016458
15:00+25сз235620 0.1 1017829
18:00+23ссз667295 0.2 1018633
21:00+19сз4109127 1.2 1019272